Regional Weather Roundup
Issued by NWS

Home | Current Version | Previous Version | Text Only | Print | Product List | Glossary On
Versions: 1 2 3 4 5 6 7 8 9 10 11 12 13 14 15 16 17 18 19 20 21 22 23 24 25 26 27 28 29 30 31 32 33 34 35 36 37 38 39 40 41 42 43 44 45 46 47 48
000
ASUS43 KMPX 131910
RWRMN
WEATHER ROUNDUP FOR MINNESOTA
NATIONAL WEATHER SERVICE TWIN CITIES/CHANHASSEN MN
200 PM CDT THU AUG 13 2020


NOTE: "FAIR" INDICATES FEW OR NO CLOUDS BELOW 12,000 FEET WITH NO
SIGNIFICANT WEATHER AND/OR OBSTRUCTIONS TO VISIBILITY. N/A MEANS
CURRENT SKY AND/OR WEATHER CONDITIONS ARE NOT AVAILABLE.

MNZ060>063-068>070-132000-
   Twin Cities Metro

CITY           SKY/WX    TMP DP  RH WIND       PRES   REMARKS
TWIN CITIES    MOSUNNY   86  72  62 S14       29.98F HX  92
ST PAUL        PTSUNNY   87  73  62 S14G23    29.97F HX  94
CRYSTAL        PTSUNNY   86  72  62 S12G22    29.96F HX  92
BLAINE         MOSUNNY   86  72  62 SE14      29.97F HX  92
LAKEVILLE      MOSUNNY   88  66  48 S8        29.99F HX  90
EDEN PRAIRIE   PTSUNNY   85  73  67 S14G24    29.96F HX  91
SOUTH ST PAUL  MOSUNNY   85  71  61 S12       29.98F HX  90
LAKE ELMO      FAIR      84  73  70 S14       30.00F HX  91
$$
MNZ001>005-007-008-013>017-022>024-027-028-132000-
   Northwest Minnesota

CITY           SKY/WX    TMP DP  RH WIND       PRES   REMARKS
BEMIDJI        CLOUDY    72  68  87 SE14      29.90S
HALLOCK        LGT RAIN  72  70  94 N8        29.86R
ROSEAU         MOSUNNY   77 N/A N/A S8        29.88R
WARROAD        MOSUNNY   79  72  78 SE7       29.88R
THIEF RVR FALL CLOUDY    78  69  73 SW13      29.86R
CROOKSTON      PTSUNNY   79  72  78 SE5       29.83R
FOSSTON        SUNNY     77  68  73 SE8G18    29.84F
DETROIT LAKES    N/A     82  70  65 S21G26    29.86S HAZE
MOORHEAD       MOSUNNY   88  70  55 S16G26    29.79F HX  92
PARK RAPIDS    CLOUDY    79  69  71 SE20G28   29.90F
MAHNOMEN       FAIR      81  72  74 SE13G20   29.83F
$$
MNZ006-009>011-018-025>026-132000-
   North Central Minnesota

CITY           SKY/WX    TMP DP  RH WIND       PRES   REMARKS
BAUDETTE       MOSUNNY   77  66  68 SE16G28   29.88F
FLAG ISLAND      N/A     73  64  73 SE9G17    29.87R
INTL FALLS     MOSUNNY   76  65  68 SE17G26   29.93F
WASKISH        MOSUNNY   75  66  73 SE16G26   29.88F
BIG FORK       CLOUDY    70  64  83 SE7       30.01F
LONGVILLE      CLOUDY    73  70  88 SE12G17   29.94F
GRAND RAPIDS   CLOUDY    71  67  87 SE12G17   29.99F
CRANE LAKE     CLOUDY    77  64  65 CALM      30.01F
ORR            CLOUDY    73  64  73 SE9G17    29.97F
COOK           CLOUDY    73  64  73 SE10      29.99F
WALKER         CLOUDY    72  69  90 SE12      29.92F
$$
MNZ012-019>021-037-132000-
   Northeast Minnesota

CITY           SKY/WX    TMP DP  RH WIND       PRES   REMARKS
DULUTH         CLOUDY    71  63  75 E15       30.04F
ELY            MOSUNNY   73  61  64 SE13      30.04F
HIBBING        CLOUDY    69  64  84 SE16      30.00F
EVELETH        CLOUDY    70  65  85 SE8       30.03F
DULUTH HARBOR  CLOUDY    66  63  88 NE15      30.03F
SILVER BAY       N/A     70  57  64 E10       30.07S
GRAND MARAIS     N/A     67  58  72 NE10      30.09F
G MARAIS ARPRT SUNNY     72  54  53 SE8       30.12F
$$
MNZ029>031-032-039>041-046>048-054>057-064-132000-
   West Central Minnesota

CITY           SKY/WX    TMP DP  RH WIND       PRES   REMARKS
FERGUS FALLS   SUNNY     84  73  70 S22G29    29.83F HX  91
WHEATON        SUNNY     88  72  58 S16G24    29.84S HX  94
MORRIS         SUNNY     84  72  65 S20G26    29.88S
ALEXANDRIA     MOSUNNY   85  74  69 S16G29    29.93S HX  92
ELBOW LAKE     FAIR      86  76  72 S21G26    29.87S HX  95
WADENA         MOSUNNY   82  73  74 S18       29.89S
GLENWOOD       SUNNY     84  73  70 S20G26    29.92F HX  91
APPLETON       MOSUNNY   88  72  58 S16G24    29.87F HX  94
BENSON         MOSUNNY   86  75  70 SW18G25   29.89F HX  95
ORTONVILLE     MOSUNNY   88  75  66 S16G25    29.85F HX  97
MADISON        MOSUNNY   88  75  66 S17G28    29.88F HX  97
WILLMAR        FAIR      86  73  66 S9        29.96F HX  93
$$
MNZ033>034-036-042>043-049>051-058-059-132000-
   Central Minnesota

CITY           SKY/WX    TMP DP  RH WIND       PRES   REMARKS
ST CLOUD       MOSUNNY   81  73  76 S15G22    29.96F
SAUK CENTRE    CLOUDY    83  74  76 S15G22    29.94S
PAYNESVILLE    PTSUNNY   83  75  77 S9G20     29.96R HX  91
AITKIN         CLOUDY    73  66  78 SE14      29.97S
PINE RIVER     CLOUDY    75  70  83 S14       29.96F
BRAINERD       CLOUDY    79  71  76 SE12G18   29.95F
STAPLES        MOSUNNY   81  72  74 S16       29.91F
LONG PRAIRIE   CLOUDY    81  73  78 S16       29.94S
LITTLE FALLS   PTSUNNY   81  73  78 SE10      29.95F
CAMP RIPLEY    MOCLDY    80  73  80 S14       29.96S
LITCHFIELD     MOSUNNY   84  75  74 SE7       29.95F HX  92
BUFFALO        PTSUNNY   82  70  68 MISG      29.98F
MAPLE LAKE       N/A     83  75  75 S5        29.98F HX  91
HUTCHINSON     PTSUNNY   84  76  77 SE8G18    29.97F HX  94
$$
MNZ037-044-045-052-053-132000-
   East Central Minnesota

CITY           SKY/WX    TMP DP  RH WIND       PRES   REMARKS
PRINCETON      MOSUNNY   82  73  74 S12       29.98F
MORA           PTSUNNY   77  68  73 S9        30.01F
CAMBRIDGE      SUNNY     84  70  61 S5        29.99F
RUSH CITY      CLOUDY    79  71  75 SE8       30.00F
MOOSE LAKE     CLOUDY    75  68  78 SE5       30.00F
HINCKLEY       CLOUDY    79  72  78 SE8       30.00F
CLOQUET        CLOUDY    70  63  78 E6        30.03S
MCGREGOR       CLOUDY    75  70  83 SE10      30.00F
$$
MNZ071>073-080-081-089-090-097-098-132000-
   Southwest Minnesota

CITY           SKY/WX    TMP DP  RH WIND       PRES   REMARKS
MONTEVIDEO     MOSUNNY   88  70  55 SW16G24   29.90F HX  92
GRANITE FALLS  MOSUNNY   88  75  65 S14G23    29.93F HX  97
CANBY          PTSUNNY   86  72  64 S13G21    29.90F HX  92
MARSHALL       MOSUNNY   86  74  67 S21G26    29.91F HX  94
REDWOOD FALLS  MOSUNNY   86  73  65 S16       29.94S HX  93
OLIVIA         MOSUNNY   86  73  66 S15G21    29.94F HX  93
PIPESTONE        N/A     82  72  69 SW18G25   29.96S
WINDOM         SUNNY     84  72  65 S13G22    29.97F
WORTHINGTON    PTSUNNY   83  73  72 S16       29.99S
JACKSON        PTSUNNY   84  70  61 S16       30.00S
TRACY          MOSUNNY   86  69  58 S16G24    29.95S HX  90
SLAYTON        MOSUNNY   84  65  54 S16G24    29.98F
$$
MNZ065>067-074>077-082>085-091>093-132000-
   South Central Minnesota

CITY           SKY/WX    TMP DP  RH WIND       PRES   REMARKS
MANKATO        PTSUNNY   85  76  74 S12G20    29.99F HX  94
NEW ULM        SUNNY     84  73  70 S12       29.96F HX  91
ST JAMES         N/A     84  72  65 S17       29.96F
FAIRMONT       MOSUNNY   86  73  65 S17       29.99F HX  93
GLENCOE        PTSUNNY   83  74  73 SE10      29.97F HX  90
FARIBAULT      MOSUNNY   84  73  70 SE13      30.00F HX  91
OWATONNA       MOSUNNY   84  73  70 S12G18    30.01S HX  91
ALBERT LEA     MOSUNNY   84  72  65 S9G18     30.02S
$$
MNZ078>079-086>088-094>096-132000-
   Southeast Minnesota

CITY           SKY/WX    TMP DP  RH WIND       PRES   REMARKS
ROCHESTER      MOSUNNY   85  71  63 S15G25    30.05F HX  90
RED WING       PTSUNNY   82  72  69 SE9       29.99F
STANTON        MOSUNNY   86  73  63 S13       29.99S HX  93
DODGE CENTER   MOSUNNY   82  72  69 S15G21    30.04S
WINONA         MOSUNNY   86  72  62 S5        30.04S HX  92
AUSTIN         MOSUNNY   84  73  70 S14       30.04S HX  91
PRESTON        PTSUNNY   82  71  67 S13       30.06F
$$
ABBREVIATIONS USED IN REMARKS
   TC - TEMPERATURES IN CELSIUS
  WCI - WIND CHILL INDEX
   HX - HEAT INDEX
  VSB - VISIBILITY
$$



USA.gov is the U.S. government's official web portal to all federal, state and local government web resources and services.